Location: Tom
(33.0437°N, 96.9452°W)
Time: 14:30:48
(UTC-06:00)

ISS - Pass Details

Date: 24 January 2019
Orbit: 403 x 411 km, 51.6° (Epoch: 22 February)

Event Time Altitude Azimuth Distance (km) Brightness Sun altitude
Rises 18:23:03 0° 246° (WSW) 2,317 2.5 -6.9°
Reaches altitude 10° 18:25:16 10° 257° (WSW) 1,462 0.8 -7.3°
Maximum altitude 18:28:14 31° 321° (NW) 740 -2.3 -7.9°
Drops below altitude 10° 18:31:13 10° 27° (NNE) 1,473 -1.4 -8.5°
Enters shadow 18:32:03 - 32° (NNE) 1,783 -1.0 -8.7°
